Surface/Atmospheric History
02/08/2018 18:02  to  2/9/2018 18:02
Change End Date:
To complete the export process:
1) Select all of the data below
2) Copy the data to the clipboard
3) Open a word processor such as Notepad
4) Paste the data into the word processor
5) Save the file

Date/Time (MST), SfStat, SfTemp, PvtTemp, SubTemp, AirTemp, RH, Dewpoint, AvgWindSpeed, GustWindSpeed, WindDirection, PrecipType, PrecipIntenisity
02/09/2018 17:56, Dry , 7.5 , , 28, -1, 72, -8, 0, 0, S, None, None
02/09/2018 17:49, Dry , 8.1 , , 28, -1, 72, -8, 0, 0, SE, None, None
02/09/2018 17:45, Dry , 8.2 , , 28, -1, 72, -8, 0, 1, SE, None, None
02/09/2018 17:35, Dry , 9.3 , , 28, -1, 72, -7, 0, 1, SE, None, None
02/09/2018 17:34, Dry , 9.5 , , 28, -1, 72, -7, 1, 1, SE, None, None
02/09/2018 17:25, Dry , 10.8 , , 28, -1, 72, -7, 1, 1, S, None, None
02/09/2018 17:19, Dry , 11.5 , , 28, 0, 72, -7, 1, 1, S, None, None
02/09/2018 17:15, Dry , 11.8 , , 28, 0, 72, -7, 1, 1, S, None, None
02/09/2018 17:05, Dry , 13.5 , , 28, 0, 73, -6, 1, 2, S, None, None
02/09/2018 17:04, Dry , 13.6 , , 28, 0, 73, -6, 1, 2, S, None, None
02/09/2018 16:55, Dry , 15.6 , , 28, 1, 73, -6, 2, 2, SW, None, None
02/09/2018 16:49, Dry , 16.5 , , 28, 1, 73, -5, 1, 2, S, None, None
02/09/2018 16:45, Dry , 17.2 , , 28, 1, 73, -5, 2, 2, S, None, None
02/09/2018 16:35, Dry , 18.7 , , 28, 2, 73, -5, 2, 4, S, None, None
02/09/2018 16:34, Dry , 18.7 , , 28, 2, 73, -5, 3, 4, S, None, None
02/09/2018 16:25, Dry , 20.1 , , 28, 3, 73, -4, 3, 4, S, None, None
02/09/2018 16:19, Dry , 21 , , 28, 3, 73, -3, 2, 3, S, None, None
02/09/2018 16:15, Dry , 21.7 , , 28, 3, 73, -4, 2, 3, S, None, None
02/09/2018 16:05, Dry , 21.6 , , 28, 3, 73, -4, 2, 3, S, None, None
02/09/2018 16:04, Dry , 21.7 , , 28, 3, 73, -4, 2, 3, S, None, None
02/09/2018 15:55, Dry , 22.8 , , 28, 3, 73, -4, 3, 4, S, None, None
02/09/2018 15:49, Dry , 22.1 , , 28, 3, 73, -3, 3, 4, S, None, None
02/09/2018 15:45, Dry , 22.8 , , 28, 4, 73, -3, 3, 4, S, None, None
02/09/2018 15:35, Dry , 25.5 , , 28, 5, 74, -1, 2, 3, SW, None, None
02/09/2018 15:34, Dry , 25.5 , , 28, 5, 74, -1, 2, 3, S, None, None
02/09/2018 15:25, Dry , 24.3 , , 28, 5, 74, -1, 2, 4, SW, None, None
02/09/2018 15:19, Dry , 25.2 , , 28, 7, 74, 0, 2, 4, SW, None, None
02/09/2018 15:14, Dry , 25 , , 28, 8, 75, 1, 1, 2, W, None, None
02/09/2018 15:04, Ice Warning , 27.5 , , 28, 8, 75, 1, 0, 1, NW, None, None
02/09/2018 15:04, Ice Warning , 27.5 , , 28, 8, 75, 1, 0, 1, NW, None, None
02/09/2018 14:54, Ice Warning , 25.9 , , 28, 8, 75, 2, 0, 1, NW, None, None
02/09/2018 14:49, Ice Warning , 26.6 , , 28, 9, 76, 3, 1, 1, NW, None, None
02/09/2018 14:44, Ice Warning , 29.8 , , 28, 11, 76, 5, 1, 1, N, None, None
02/09/2018 14:34, Ice Warning , 29.7 , , 28, 10, 76, 4, 1, 1, N, None, None
02/09/2018 14:34, Ice Warning , 29.7 , , 28, 10, 76, 4, 1, 1, N, None, None
02/09/2018 14:24, Ice Warning , 29.7 , , 28, 8, 75, 2, 1, 2, N, None, None
02/09/2018 14:19, Ice Warning , 30.7 , , 28, 9, 75, 2, 1, 1, N, None, None
02/09/2018 14:14, Ice Warning , 31.3 , , 28, 8, 75, 2, 0, 1, N, None, None
02/09/2018 14:04, Wet , 32 , , 28, 10, 75, 4, 1, 2, N, None, None
02/09/2018 14:04, Wet , 32.2 , , 28, 10, 75, 3, 1, 2, N, None, None
02/09/2018 13:54, Ice Warning , 28.9 , , 28, 9, 75, 3, 2, 3, N, None, None
02/09/2018 13:49, Ice Warning , 29.7 , , 28, 9, 75, 2, 2, 3, N, None, None
02/09/2018 13:44, Ice Warning , 28.2 , , 28, 8, 75, 2, 2, 4, N, None, None
02/09/2018 13:34, Ice Warning , 28.2 , , 28, 7, 74, 1, 3, 4, N, None, None
02/09/2018 13:34, Ice Warning , 28.4 , , 28, 7, 74, 1, 3, 4, N, None, None
02/09/2018 13:24, Ice Warning , 27.7 , , 28, 7, 74, 1, 3, 4, N, None, None
02/09/2018 13:19, Ice Warning , 26.8 , , 28, 6, 74, 0, 4, 4, N, None, None
02/09/2018 13:14, Ice Warning , 26.8 , , 28, 5, 73, -2, 3, 5, N, None, None
02/09/2018 13:04, Ice Warning , 27.7 , , 29, 3, 73, -3, 4, 5, N, None, None
02/09/2018 13:04, Ice Warning , 27.3 , , 29, 3, 73, -3, 4, 5, N, None, None
02/09/2018 12:54, Ice Warning , 27.7 , , 29, 3, 73, -3, 4, 6, N, None, None
02/09/2018 12:49, Ice Warning , 27.5 , , 29, 4, 73, -3, 4, 5, N, None, None
02/09/2018 12:44, Ice Warning , 27 , , 29, 5, 73, -2, 2, 4, N, None, None
02/09/2018 12:34, Ice Warning , 25.7 , , 29, 2, 72, -4, 3, 6, N, None, None
02/09/2018 12:34, Ice Warning , 26.6 , , 29, 2, 72, -4, 3, 6, N, None, None
02/09/2018 12:23, Dry , 25.7 , , 29, 2, 72, -5, 4, 6, NE, None, None
02/09/2018 12:19, Ice Warning , 24.8 , , 29, 2, 72, -5, 4, 5, NE, None, None
02/09/2018 12:13, Ice Warning , 24.8 , , 29, 1, 72, -5, 4, 6, NE, None, None
02/09/2018 12:04, Ice Warning , 23.5 , , 29, 2, 72, -5, 4, 5, N, None, None
02/09/2018 12:03, Ice Warning , 23 , , 29, 2, 72, -5, 4, 5, NE, None, None
02/09/2018 11:53, Ice Warning , 22.3 , , 29, 1, 72, -5, 2, 5, NE, Yes,
02/09/2018 11:49, Ice Warning , 22.5 , , 29, 1, 72, -5, 3, 7, NE, Yes,
02/09/2018 11:43, Ice Warning , 21.4 , , 29, 1, 72, -6, 6, 7, N, None, None
02/09/2018 11:34, Ice Warning , 19.8 , , 29, 0, 72, -6, 6, 7, N, None, None
02/09/2018 11:33, Ice Warning , 19.4 , , 29, 0, 72, -6, 7, 7, NE, None, None
02/09/2018 11:23, Ice Warning , 18.7 , , 29, 1, 72, -6, 6, 7, N, None, None
02/09/2018 11:19, Ice Warning , 18 , , 29, 1, 72, -6, 6, 7, N, None, None
02/09/2018 11:13, Ice Warning , 16.9 , , 29, 1, 72, -6, 6, 7, N, Yes,
02/09/2018 11:04, Ice Warning , 16.7 , , 29, 2, 73, -5, 5, 6, N, Yes,
02/09/2018 11:03, Ice Warning , 16.7 , , 29, 2, 73, -4, 5, 7, N, Yes,
02/09/2018 10:53, Ice Warning , 16.2 , , 29, 2, 72, -5, 6, 8, N, None, None
02/09/2018 10:49, Ice Warning , 15.6 , , 29, 2, 72, -5, 7, 8, N, Yes,
02/09/2018 10:43, Ice Warning , 15.4 , , 29, 1, 72, -5, 6, 9, N, Yes,
02/09/2018 10:34, Ice Warning , 14.9 , , 29, 0, 72, -7, 7, 9, N, None, None
02/09/2018 10:33, Ice Warning , 14.9 , , 29, 0, 72, -7, 7, 10, N, None, None
02/09/2018 10:23, Ice Warning , 14.5 , , 29, -1, 72, -7, 7, 10, N, None, None
02/09/2018 10:19, Ice Warning , 14.2 , , 29, -1, 72, -7, 9, 10, N, None, None
02/09/2018 10:13, Ice Warning , 14.2 , , 29, -1, 72, -8, 8, 9, N, None, None
02/09/2018 10:04, Ice Warning , 13.3 , , 29, -2, 72, -9, 6, 7, N, None, None
02/09/2018 10:03, Ice Warning , 13.1 , , 29, -2, 72, -9, 5, 7, N, None, None
02/09/2018 09:52, Ice Warning , 11.5 , , 29, -2, 72, -9, 7, 8, N, None, None
02/09/2018 09:49, Ice Warning , 11.7 , , 29, -2, 72, -9, 7, 8, N, None, None
02/09/2018 09:42, Ice Warning , 11.5 , , 29, -1, 72, -8, 7, 9, N, None, None
02/09/2018 09:34, Ice Warning , 11.3 , , 29, -2, 71, -9, 8, 9, N, None, None
02/09/2018 09:32, Ice Warning , 11.1 , , 29, -2, 71, -9, 9, 9, N, None, None
02/09/2018 09:22, Ice Warning , 9.9 , , 29, -4, 71, -10, 9, 10, N, None, None
02/09/2018 09:19, Ice Warning , 9.5 , , 29, -4, 71, -11, 9, 10, N, None, None
02/09/2018 09:12, Ice Warning , 9.9 , , 29, -3, 71, -10, 9, 9, N, None, None
02/09/2018 09:04, Ice Warning , 10.6 , , 29, -3, 72, -9, 9, 10, N, None, None
02/09/2018 09:02, Ice Warning , 10.8 , , 29, -3, 72, -9, 9, 10, N, Yes,
02/09/2018 08:52, Ice Warning , 10.4 , , 29, -3, 72, -10, 9, 10, N, None, None
02/09/2018 08:49, Ice Warning , 10.2 , , 29, -3, 72, -10, 9, 10, N, None, None
02/09/2018 08:42, Ice Warning , 10 , , 29, -3, 72, -10, 6, 8, NE, None, None
02/09/2018 08:34, Ice Warning , 9.7 , , 29, -3, 72, -10, 7, 8, NE, None, None
02/09/2018 08:32, Ice Warning , 9.7 , , 29, -3, 72, -10, 7, 7, NE, None, None
02/09/2018 08:22, Ice Warning , 9.7 , , 29, -3, 72, -10, 6, 7, N, None, None
02/09/2018 08:19, Ice Warning , 9.7 , , 29, -3, 72, -10, 6, 7, N, None, None
02/09/2018 08:12, Ice Warning , 9.5 , , 29, -3, 72, -10, 5, 6, N, None, None
02/09/2018 08:04, Ice Warning , 9.3 , , 29, -3, 72, -10, 5, 6, N, Yes,
02/09/2018 08:02, Ice Warning , 9.3 , , 29, -3, 72, -10, 4, 6, N, Yes,
02/09/2018 07:52, Ice Warning , 9.1 , , 29, -3, 72, -10, 4, 5, N, Yes,
02/09/2018 07:49, Ice Warning , 9.3 , , 29, -3, 72, -10, 4, 6, N, Yes,
02/09/2018 07:42, Ice Warning , 9.3 , , 29, -3, 72, -10, 5, 6, N, Yes,
02/09/2018 07:34, Ice Warning , 9.3 , , 29, -3, 72, -10, 4, 5, N, Yes,
02/09/2018 07:32, Ice Warning , 9.3 , , 29, -3, 72, -10, 4, 5, N, Yes,
02/09/2018 07:22, Ice Warning , 9.3 , , 29, -3, 72, -10, 4, 4, N, Yes,
02/09/2018 07:19, Ice Warning , 9.5 , , 29, -3, 72, -10, 4, 4, N, Yes,
02/09/2018 07:12, Ice Warning , 9.9 , , 29, -3, 72, -10, 4, 6, N, Yes,
02/09/2018 07:04, Ice Warning , 9.7 , , 29, -3, 72, -10, 4, 6, N, Yes,
02/09/2018 07:02, Ice Warning , 9.5 , , 29, -3, 72, -10, 4, 7, N, Yes,
02/09/2018 06:51, Ice Warning , 9.3 , , 29, -3, 72, -10, 7, 9, N, None, None
02/09/2018 06:49, Ice Warning , 9.3 , , 29, -3, 72, -10, 7, 9, N, None, None
02/09/2018 06:41, Ice Warning , 9.7 , , 29, -3, 72, -10, 7, 9, N, None, None
02/09/2018 06:34, Ice Warning , 9.9 , , 29, -3, 72, -10, 7, 9, N, None, None
02/09/2018 06:31, Ice Warning , 9.9 , , 29, -3, 72, -10, 7, 9, NE, None, None
02/09/2018 06:21, Ice Warning , 10 , , 29, -3, 72, -10, 8, 10, NE, None, None
02/09/2018 06:19, Ice Warning , 10.2 , , 29, -3, 72, -10, 8, 10, NE, None, None
02/09/2018 06:11, Ice Warning , 10.2 , , 29, -3, 72, -10, 9, 11, NE, None, None
02/09/2018 06:04, Ice Warning , 10.6 , , 29, -3, 72, -10, 8, 10, NE, None, None
02/09/2018 06:01, Ice Warning , 11.3 , , 29, -3, 72, -10, 9, 10, N, None, None
02/09/2018 05:51, Ice Warning , 10.9 , , 29, -3, 72, -10, 10, 12, N, None, None
02/09/2018 05:49, Ice Warning , 10.9 , , 29, -3, 72, -10, 11, 12, N, None, None
02/09/2018 05:41, Ice Warning , 10.8 , , 29, -3, 72, -10, 10, 12, N, None, None
02/09/2018 05:34, Ice Warning , 10.6 , , 29, -3, 72, -10, 11, 12, N, Yes,
02/09/2018 05:31, Ice Warning , 10.8 , , 29, -3, 72, -10, 10, 12, NE, None, None
02/09/2018 05:21, Ice Warning , 10.4 , , 29, -3, 72, -10, 10, 12, NE, None, None
02/09/2018 05:19, Ice Warning , 10.4 , , 29, -3, 72, -10, 11, 12, NE, None, None
02/09/2018 05:11, Ice Warning , 9.5 , , 29, -3, 72, -9, 10, 11, NE, None, None
02/09/2018 05:04, Ice Warning , 9.7 , , 29, -3, 72, -9, 9, 10, NE, None, None
02/09/2018 05:01, Ice Warning , 9.9 , , 29, -3, 72, -9, 9, 11, NE, None, None
02/09/2018 04:51, Ice Warning , 10 , , 30, -2, 72, -9, 10, 12, NE, None, None
02/09/2018 04:49, Ice Warning , 10 , , 30, -2, 72, -9, 10, 12, NE, None, None
02/09/2018 04:41, Ice Warning , 10.2 , , 30, -2, 72, -9, 11, 11, N, None, None
02/09/2018 04:34, Ice Warning , 10.6 , , 30, -2, 72, -9, 10, 12, N, None, None
02/09/2018 04:31, Ice Warning , 10.6 , , 30, -2, 72, -9, 11, 12, N, None, None
02/09/2018 04:21, Ice Warning , 11.5 , , 30, -2, 72, -9, 9, 11, NE, None, None
02/09/2018 04:19, Ice Warning , 11.5 , , 30, -2, 72, -9, 9, 11, NE, None, None
02/09/2018 04:10, Ice Warning , 11.5 , , 30, -2, 72, -9, 9, 11, NE, None, None
02/09/2018 04:04, Ice Warning , 11.5 , , 30, -2, 72, -9, 10, 11, NE, None, None
02/09/2018 04:00, Ice Warning , 11.5 , , 30, -2, 72, -9, 10, 11, N, None, None
02/09/2018 03:50, Ice Warning , 11.7 , , 30, -2, 72, -9, 9, 9, NE, None, None
02/09/2018 03:49, Ice Warning , 11.7 , , 30, -2, 72, -9, 9, 9, NE, None, None
02/09/2018 03:40, Ice Warning , 12.2 , , 30, -2, 72, -9, 9, 10, NE, None, None
02/09/2018 03:34, Ice Warning , 13.5 , , 30, -2, 72, -8, 9, 11, NE, Yes,
02/09/2018 03:30, Ice Warning , 13.3 , , 30, -2, 72, -8, 10, 11, NE, Yes,
02/09/2018 03:20, Ice Warning , 12.6 , , 30, -1, 72, -8, 9, 10, NE, None, None
02/09/2018 03:19, Ice Warning , 12.6 , , 30, -1, 72, -8, 9, 10, NE, None, None
02/09/2018 03:10, Ice Warning , 12.9 , , 30, -1, 72, -8, 7, 10, NE, Yes,
02/09/2018 03:04, Ice Warning , 12.6 , , 30, -1, 72, -8, 7, 10, NE, Yes,
02/09/2018 03:00, Ice Warning , 12.6 , , 30, -1, 72, -8, 9, 10, NE, Yes,
02/09/2018 02:50, Ice Warning , 12.6 , , 30, -1, 72, -8, 8, 10, NE, Yes,
02/09/2018 02:49, Ice Warning , 12.6 , , 30, -1, 72, -8, 9, 10, NE, Yes,
02/09/2018 02:40, Ice Warning , 12.6 , , 30, -1, 72, -8, 7, 9, NE, Yes,
02/09/2018 02:34, Ice Warning , 12.6 , , 30, -1, 72, -7, 9, 9, NE, Yes,
02/09/2018 02:30, Ice Warning , 12.4 , , 30, -1, 72, -7, 7, 9, NE, Yes,
02/09/2018 02:20, Ice Warning , 11.7 , , 30, -1, 72, -7, 7, 9, N, Yes,
02/09/2018 02:19, Ice Warning , 11.7 , , 30, -1, 72, -7, 7, 9, NE, Yes,
02/09/2018 02:10, Ice Warning , 11.5 , , 30, -1, 72, -7, 7, 9, NE, Yes,
02/09/2018 02:04, Ice Warning , 11.5 , , 30, -1, 72, -7, 7, 9, NE, None, None
02/09/2018 02:00, Ice Warning , 11.5 , , 30, -1, 72, -7, 7, 9, NE, None, None
02/09/2018 01:50, Ice Warning , 11.3 , , 30, -1, 72, -7, 7, 9, NE, Yes,
02/09/2018 01:49, Ice Warning , 11.3 , , 30, -1, 72, -7, 7, 9, NE, None, None
02/09/2018 01:40, Ice Warning , 10.6 , , 30, -1, 72, -7, 8, 9, NE, None, None
02/09/2018 01:34, Ice Warning , 10.6 , , 30, -1, 72, -7, 7, 9, NE, None, None
02/09/2018 01:30, Ice Warning , 10.6 , , 30, -1, 72, -7, 7, 12, NE, None, None
02/09/2018 01:19, Ice Warning , 10.6 , , 30, -1, 72, -7, 11, 11, NE, None, None
02/09/2018 01:09, Ice Warning , 10.8 , , 30, -1, 72, -7, 10, 11, NE, None, None
02/09/2018 01:04, Ice Warning , 10.8 , , 30, -1, 72, -7, 10, 11, NE, None, None
02/09/2018 00:59, Ice Warning , 11.3 , , 30, -1, 72, -7, 11, 12, NE, None, None
02/09/2018 00:49, Ice Warning , 11.5 , , 30, -1, 72, -7, 11, 12, NE, None, None
02/09/2018 00:49, Ice Warning , 11.5 , , 30, -1, 72, -7, 11, 12, NE, None, None
02/09/2018 00:39, Ice Warning , 11.5 , , 30, 0, 72, -7, 9, 11, NE, None, None
02/09/2018 00:34, Ice Warning , 11.5 , , 30, 0, 72, -7, 9, 9, NE, None, None
02/09/2018 00:29, Ice Warning , 11.5 , , 30, 0, 72, -7, 7, 11, NE, None, None
02/09/2018 00:19, Ice Warning , 11.5 , , 30, 0, 72, -7, 9, 12, NE, None, None
02/09/2018 00:19, Ice Warning , 11.5 , , 30, 0, 72, -7, 9, 12, NE, None, None
02/09/2018 00:09, Ice Warning , 11.5 , , 30, 0, 72, -7, 9, 12, NE, Yes,
02/09/2018 00:04, Ice Warning , 11.8 , , 30, 0, 72, -7, 9, 12, NE, None, None
02/08/2018 23:59, Ice Warning , 11.5 , , 30, 0, 72, -7, 11, 13, NE, None, None
02/08/2018 23:49, Ice Warning , 11.8 , , 30, 0, 72, -7, 11, 13, NE, None, None
02/08/2018 23:49, Ice Warning , 11.8 , , 30, 0, 72, -7, 11, 13, NE, None, None
02/08/2018 23:39, Ice Warning , 12.2 , , 30, 0, 72, -7, 10, 13, NE, None, None
02/08/2018 23:34, Ice Warning , 12.4 , , 30, 0, 72, -7, 12, 13, NE, None, None
02/08/2018 23:29, Ice Warning , 12.6 , , 30, -1, 72, -7, 11, 12, NE, None, None
02/08/2018 23:19, Ice Warning , 12.6 , , 30, -1, 72, -8, 7, 11, NE, None, None
02/08/2018 23:19, Ice Warning , 12.6 , , 30, -1, 72, -7, 7, 11, NE, None, None
02/08/2018 23:09, Ice Warning , 12.7 , , 30, -1, 73, -7, 11, 13, NE, None, None
02/08/2018 23:04, Ice Warning , 13.1 , , 30, -1, 73, -7, 9, 12, NE, None, None
02/08/2018 22:59, Ice Warning , 13.5 , , 30, 0, 73, -7, 11, 12, NE, Yes,
02/08/2018 22:49, Ice Warning , 14.2 , , 30, 1, 73, -6, 11, 14, NE, None, None
02/08/2018 22:49, Ice Warning , 14.4 , , 30, 1, 73, -6, 10, 14, NE, None, None
02/08/2018 22:38, Ice Warning , 15.3 , , 30, 1, 73, -6, 12, 16, NE, None, None
02/08/2018 22:34, Ice Warning , 15.3 , , 30, 1, 73, -6, 14, 16, NE, None, None
02/08/2018 22:28, Ice Warning , 15.3 , , 30, 1, 73, -6, 12, 14, NE, None, None
02/08/2018 22:19, Ice Warning , 15.6 , , 30, 1, 73, -6, 11, 14, NE, None, None
02/08/2018 22:18, Ice Warning , 15.6 , , 30, 1, 73, -6, 11, 14, NE, None, None
02/08/2018 22:08, Ice Warning , 16 , , 30, 1, 73, -5, 11, 14, NE, None, None
02/08/2018 22:04, Ice Warning , 16.5 , , 30, 1, 73, -5, 10, 15, NE, None, None
02/08/2018 21:58, Ice Warning , 16.5 , , 30, 1, 73, -5, 13, 15, NE, None, None
02/08/2018 21:49, Ice Warning , 16.3 , , 30, 2, 73, -5, 11, 12, NE, Yes,
02/08/2018 21:48, Ice Warning , 16.2 , , 30, 2, 73, -5, 11, 12, NE, Yes,
02/08/2018 21:38, Ice Warning , 16.2 , , 30, 2, 74, -5, 9, 11, NE, Yes,
02/08/2018 21:34, Ice Warning , 16.3 , , 30, 2, 74, -4, 8, 11, NE, Yes,
02/08/2018 21:28, Ice Warning , 16 , , 30, 2, 74, -4, 9, 12, NE, None, None
02/08/2018 21:19, Ice Warning , 16.3 , , 30, 2, 74, -4, 11, 12, NE, None, None
02/08/2018 21:18, Ice Warning , 16.3 , , 30, 2, 74, -4, 11, 12, NE, None, None
02/08/2018 21:08, Ice Warning , 16.3 , , 30, 2, 74, -4, 10, 12, N, None, None
02/08/2018 21:04, Ice Warning , 17.1 , , 30, 2, 74, -4, 10, 14, N, None, None
02/08/2018 20:58, Ice Warning , 16.7 , , 30, 2, 74, -4, 12, 15, N, None, None
02/08/2018 20:49, Ice Warning , 16.3 , , 30, 3, 74, -4, 13, 15, NE, None, None
02/08/2018 20:48, Ice Warning , 16.2 , , 30, 2, 74, -4, 14, 15, NE, None, None
02/08/2018 20:38, Ice Warning , 15.4 , , 30, 3, 74, -3, 12, 15, NE, None, None
02/08/2018 20:34, Ice Warning , 15.1 , , 30, 3, 74, -3, 12, 14, NE, None, None
02/08/2018 20:28, Ice Warning , 14.4 , , 30, 3, 74, -3, 13, 14, N, None, None
02/08/2018 20:19, Ice Warning , 14 , , 30, 3, 74, -3, 12, 16, N, Yes,
02/08/2018 20:18, Ice Warning , 13.8 , , 30, 4, 74, -3, 12, 17, N, Yes,
02/08/2018 20:08, Ice Watch , 13.8 , , 30, 4, 74, -3, 16, 17, N, None, None
02/08/2018 20:04, Ice Watch , 14 , , 30, 4, 74, -3, 15, 17, N, None, None
02/08/2018 19:58, Ice Watch , 14 , , 30, 4, 74, -3, 14, 15, NE, None, None
02/08/2018 19:49, Ice Watch , 14.2 , , 30, 4, 74, -3, 14, 16, NE, None, None
02/08/2018 19:47, Ice Watch , 14.2 , , 30, 4, 74, -3, 13, 16, NE, None, None
02/08/2018 19:37, Ice Watch , 14.5 , , 30, 4, 74, -3, 14, 18, NE, None, None
02/08/2018 19:34, Ice Watch , 14.4 , , 30, 4, 74, -3, 15, 18, NE, None, None
02/08/2018 19:27, Ice Watch , 14.7 , , 30, 4, 74, -2, 14, 18, NE, None, None
02/08/2018 19:19, Ice Watch , 14.9 , , 30, 4, 74, -2, 12, 16, NE, None, None
02/08/2018 19:17, Ice Watch , 14.9 , , 30, 4, 74, -2, 12, 16, N, None, None
02/08/2018 19:07, Ice Watch , 15.4 , , 30, 4, 74, -2, 13, 16, N, None, None
02/08/2018 19:04, Ice Watch , 15.6 , , 30, 4, 74, -2, 14, 16, N, None, None
02/08/2018 18:57, Ice Watch , 15.6 , , 30, 4, 74, -2, 13, 17, NE, None, None
02/08/2018 18:49, Ice Watch , 15.8 , , 30, 4, 74, -2, 15, 16, NE, None, None
02/08/2018 18:47, Ice Watch , 15.8 , , 30, 5, 74, -2, 14, 16, NE, None, None
02/08/2018 18:37, Ice Watch , 16.3 , , 30, 5, 74, -1, 14, 16, NE, None, None
02/08/2018 18:34, Ice Watch , 16.3 , , 30, 5, 74, -1, 14, 16, NE, None, None
02/08/2018 18:27, Ice Watch , 16.3 , , 30, 5, 74, -1, 14, 17, NE, None, None
02/08/2018 18:19, Ice Watch , 16.7 , , 30, 5, 74, -1, 13, 16, NE, None, None
02/08/2018 18:17, Ice Watch , 16.7 , , 30, 5, 74, -1, 12, 16, NE, None, None
02/08/2018 18:07, Ice Watch , 17.1 , , 30, 5, 75, -1, 11, 12, NE, None, None
02/08/2018 18:04, Ice Watch , 17.1 , , 30, 5, 75, -1, 9, 13, NE, None, None
Change End Date:

Copyright © 1998-2015 Vaisala, Inc.
All Rights Reserved
Send comments about the data to:
SCAN Web ® is a registered trademark of Vaisala, Inc.
SCAN Web Version 6.0